Simultaneous Nadir Overpasses (SNOs) Predictions

Prediction of SNOs between GOES-14 and NOAA-20 Satellite Orbit:

Table of predicted SNOs for the next 14.0 days since TLE Epoch: 5/27/2023
Index Date Time (GOES-14) GOES-14 Lat,Lon NOAA-20 Lat,Lon Distance(km) Time Diff (sec)
1 05/27/2023 08:46:25 0.08,-108.58 0.37,-109.73 131.62 80
2 05/28/2023 08:25:01 0.11,-108.59 -0.67,-105.20 386.24 80
3 05/29/2023 20:46:57 -0.07,-108.55 -0.50,-110.50 222.61 80
4 05/30/2023 20:30:52 -0.09,-108.56 0.47,-105.96 295.94 80
5 06/01/2023 08:52:40 0.05,-108.64 0.64,-111.24 296.36 80
6 06/02/2023 08:31:14 0.07,-108.64 -0.34,-106.70 221.17 80
7 06/03/2023 20:53:11 -0.04,-108.58 -0.83,-112.00 390.08 80
8 06/04/2023 20:37:06 -0.05,-108.59 0.22,-107.47 127.82 80
9 06/06/2023 08:56:14 0.02,-108.67 0.95,-112.73 464.06 80
10 06/07/2023 08:40:09 0.03,-108.67 -0.09,-108.21 53.11 80
11 06/09/2023 20:40:40 -0.03,-108.60 -0.08,-108.97 41.87 80
